GW4147 Weather Reports


time (UTC)temp
C
wind
direction
speed
KPH
gust
KPH
rain 1hr
cm
rain 24hr
cm
rain mn
cm
humidity
%
barometer
mb
20260506051249 14 7 8.0 20.9 0.00 0.00 0.00 76 1011.3
20260506050747 14 339 12.9 17.7 0.00 0.00 0.00 76 1011.3
20260506050244 15 31 11.3 17.7 0.00 0.00 0.00 76 1011.5
20260506044735 15 19 8.0 17.7 0.00 0.00 0.00 78 1011.5
20260506044232 15 356 9.7 12.9 0.00 0.00 0.00 78 1011.3
20260506043730 15 352 8.0 19.3 0.00 0.00 0.00 78 1011.2
20260506043227 15 25 6.4 17.7 0.00 0.00 0.00 78 1011.3
20260506042726 15 12 8.0 16.1 0.00 0.00 0.00 78 1011.7
20260506042224 15 16 12.9 19.3 0.00 0.00 0.00 78 1011.3
20260506041722 15 358 11.3 14.5 0.00 0.00 0.00 78 1011.5
20260506041219 15 350 8.0 17.7 0.00 0.00 0.00 79 1011.0
20260506040716 15 352 9.7 19.3 0.00 0.00 0.00 79 1011.1
20260506040213 15 22 3.2 9.7 0.00 0.00 0.00 79 1011.2
20260506035710 15 4 14.5 19.3 0.00 0.00 0.00 78 1011.0
20260506035207 15 345 6.4 14.5 0.00 0.00 0.00 79 1010.8
20260506034703 15 352 8.0 20.9 0.00 0.00 0.00 79 1011.1
20260506034201 16 356 11.3 19.3 0.00 0.00 0.00 78 1010.9
20260506033658 16 13 11.3 17.7 0.00 0.00 0.00 79 1010.6
20260506033155 16 41 9.7 17.7 0.00 0.00 0.00 78 1010.7
20260506032652 16 3 8.0 20.9 0.00 0.00 0.00 78 1010.5
20260506032149 16 349 17.7 17.7 0.00 0.00 0.00 78 1010.6
20260506031645 16 14 6.4 14.5 0.00 0.00 0.00 78 1010.7
20260506031142 16 356 9.7 17.7 0.00 0.00 0.00 77 1010.7
20260506030641 16 350 8.0 17.7 0.00 0.00 0.00 77 1010.7
20260506030138 16 354 9.7 16.1 0.00 0.00 0.00 78 1010.4
20260506025635 16 17 8.0 20.9 0.00 0.00 0.00 77 1010.5
20260506025131 16 20 4.8 16.1 0.00 0.00 0.00 77 1010.2
20260506024629 16 344 6.4 17.7 0.00 0.00 0.00 77 1010.2
20260506024124 17 348 4.8 16.1 0.00 0.00 0.00 77 1009.9
20260506023621 17 342 11.3 17.7 0.00 0.00 0.00 77 1009.9
20260506023118 17 15 9.7 20.9 0.00 0.00 0.00 77 1009.9
20260506022615 17 350 9.7 16.1 0.00 0.00 0.00 77 1009.8
20260506022113 17 12 11.3 14.5 0.00 0.00 0.00 77 1009.3
20260506021610 17 37 9.7 19.3 0.00 0.00 0.00 76 1008.9
20260506021108 18 346 8.0 17.7 0.00 0.00 0.00 76 1009.0
20260506020604 18 11 14.5 17.7 0.00 0.00 0.00 75 1009.0
20260506015559 18 326 9.7 11.3 0.00 0.00 0.00 75 1008.8
20260506015056 18 351 9.7 12.9 0.00 0.00 0.00 74 1008.6
20260506014554 18 1 6.4 11.3 0.00 0.00 0.00 74 1008.4
20260506014049 19 335 12.9 16.1 0.00 0.00 0.00 74 1008.5
20260506013548 19 3 6.4 17.7 0.00 0.00 0.00 74 1008.1
20260506013044 19 14 11.3 14.5 0.00 0.00 0.00 74 1008.1
20260506012540 19 56 8.0 14.5 0.00 0.00 0.00 74 1008.2
20260506012037 20 353 6.4 17.7 0.00 0.00 0.00 74 1008.6
20260506011535 20 15 9.7 14.5 0.00 0.00 0.00 74 1008.2
20260506011031 20 13 6.4 9.7 0.00 0.00 0.00 73 1007.7
20260506010530 20 345 3.2 8.0 0.00 0.00 0.00 73 1007.7
20260506010026 20 343 3.2 12.9 0.00 0.00 0.00 72 1007.8
20260506005523 20 336 14.5 17.7 0.00 0.00 0.00 72 1007.5
20260506005019 20 352 11.3 17.7 0.00 0.00 0.00 71 1007.2
20260506004517 20 333 6.4 17.7 0.00 0.00 0.00 71 1007.2
20260506004013 20 10 6.4 16.1 0.00 0.00 0.00 70 1006.9
20260506003510 21 9 8.0 20.9 0.00 0.00 0.00 70 1007.0
20260506003006 21 331 9.7 17.7 0.00 0.00 0.00 69 1006.8
20260506002502 21 354 14.5 22.5 0.00 0.00 0.00 69 1006.9
20260506001957 21 328 11.3 16.1 0.00 0.00 0.00 68 1006.9
20260506001454 21 12 9.7 16.1 0.00 0.00 0.00 68 1006.9
20260506000952 21 317 14.5 20.9 0.00 0.00 0.00 67 1007.1
20260506000449 21 358 9.7 19.3 0.00 0.00 0.00 67 1007.1
20260505235946 21 325 11.3 17.7 0.00 0.00 0.00 68 1006.9
20260505235444 22 337 17.7 19.3 0.00 0.00 0.00 68 1006.9
20260505234940 22 335 11.3 24.1 0.00 0.00 0.00 67 1006.8
20260505234438 22 351 12.9 19.3 0.00 0.00 0.00 67 1007.1
20260505233934 22 323 14.5 17.7 0.00 0.00 0.00 66 1007.0
20260505233432 22 340 14.5 25.7 0.00 0.00 0.00 66 1006.9
20260505232930 22 334 11.3 24.1 0.00 0.00 0.00 66 1006.7
20260505232428 23 334 14.5 17.7 0.00 0.00 0.00 66 1006.1
20260505231924 23 308 9.7 19.3 0.00 0.00 0.00 66 1006.4
20260505231422 23 336 14.5 25.7 0.00 0.00 0.00 65 1006.4
20260505230919 23 354 12.9 20.9 0.00 0.00 0.00 64 1006.8
20260505230417 24 20 9.7 22.5 0.00 0.00 0.00 63 1006.7
20260505225913 25 342 12.9 22.5 0.00 0.00 0.00 62 1006.3
20260505225411 25 326 8.0 16.1 0.00 0.00 0.00 61 1006.0
20260505224912 25 339 19.3 22.5 0.00 0.00 0.00 61 1006.3
20260505224409 25 328 9.7 17.7 0.00 0.00 0.00 61 1006.0
20260505223906 25 325 14.5 20.9 0.00 0.00 0.00 60 1005.8
20260505223403 26 325 11.3 24.1 0.00 0.00 0.00 60 1006.0
20260505222859 26 329 8.0 17.7 0.00 0.00 0.00 60 1006.0
20260505222355 26 346 11.3 25.7 0.00 0.00 0.00 58 1005.6
20260505221852 27 339 14.5 25.7 0.00 0.00 0.00 58 1005.6
20260505221349 28 327 11.3 16.1 0.00 0.00 0.00 56 1005.5
20260505220846 28 332 8.0 20.9 0.00 0.00 0.00 52 1005.5
20260505220343 29 332 11.3 20.9 0.00 0.00 0.00 51 1005.3
20260505215841 29 329 11.3 16.1 0.00 0.00 0.00 49 1005.2
20260505215339 29 306 8.0 20.9 0.00 0.00 0.00 49 1005.4
20260505214837 28 327 4.8 12.9 0.00 0.00 0.00 48 1005.2
20260505214334 28 323 6.4 19.3 0.00 0.00 0.00 47 1005.1
20260505213831 28 337 8.0 20.9 0.00 0.00 0.00 46 1005.3
20260505213329 29 307 6.4 24.1 0.00 0.00 0.00 44 1005.4
20260505212824 30 331 9.7 16.1 0.00 0.00 0.00 44 1005.4
20260505212322 30 315 6.4 14.5 0.00 0.00 0.00 44 1005.4
20260505211818 30 348 11.3 20.9 0.00 0.00 0.00 41 1005.5
20260505211316 30 288 11.3 22.5 0.00 0.00 0.00 41 1005.3
20260505210812 30 334 11.3 20.9 0.00 0.00 0.00 40 1005.3
20260505210309 30 312 16.1 25.7 0.00 0.00 0.00 41 1005.4
20260505205806 31 311 12.9 20.9 0.00 0.00 0.00 43 1005.5
20260505205305 31 317 8.0 14.5 0.00 0.00 0.00 45 1005.4
20260505204800 31 239 6.4 20.9 0.00 0.00 0.00 49 1005.6
20260505204258 31 213 9.7 17.7 0.00 0.00 0.00 53 1005.5
20260505203755 30 183 8.0 14.5 0.00 0.00 0.00 54 1005.6
20260505203252 30 282 9.7 9.7 0.00 0.00 0.00 54 1005.4
20260505202748 30 231 11.3 17.7 0.00 0.00 0.00 56 1005.5
20260505202244 29 214 9.7 12.9 0.00 0.00 0.00 58 1005.5
20260505201741 29 214 9.7 17.7 0.00 0.00 0.00 59 1005.7
20260505201238 29 217 8.0 19.3 0.00 0.00 0.00 58 1005.8
20260505200737 29 225 8.0 14.5 0.00 0.00 0.00 59 1005.8
20260505200234 29 213 12.9 20.9 0.00 0.00 0.00 57 1005.8
20260505195729 29 242 9.7 22.5 0.00 0.00 0.00 60 1005.7
20260505195227 29 224 8.0 19.3 0.00 0.00 0.00 58 1005.5
20260505194724 29 249 8.0 14.5 0.00 0.00 0.00 60 1005.9
20260505194220 29 213 20.9 22.5 0.00 0.00 0.00 58 1005.7
20260505193716 30 215 12.9 16.1 0.00 0.00 0.00 61 1005.6
20260505193213 29 239 3.2 12.9 0.00 0.00 0.00 62 1006.0
20260505192712 30 216 12.9 19.3 0.00 0.00 0.00 60 1005.9
20260505192209 29 214 14.5 20.9 0.00 0.00 0.00 62 1005.8
20260505191707 30 174 9.7 16.1 0.00 0.00 0.00 61 1005.5
20260505191205 29 263 3.2 14.5 0.00 0.00 0.00 64 1005.9
20260505190702 28 196 8.0 12.9 0.00 0.00 0.00 65 1005.6
20260505190201 28 220 12.9 20.9 0.00 0.00 0.00 64 1005.7
20260505185658 28 197 4.8 20.9 0.00 0.00 0.00 64 1005.6
20260505185154 28 220 6.4 12.9 0.00 0.00 0.00 64 1005.6
20260505184651 28 212 11.3 14.5 0.00 0.00 0.00 64 1005.6
20260505184148 28 229 4.8 17.7 0.00 0.00 0.00 63 1005.4
20260505183645 28 230 3.2 11.3 0.00 0.00 0.00 64 1005.8
20260505183142 28 239 8.0 11.3 0.00 0.00 0.00 64 1005.8
20260505182638 28 223 8.0 17.7 0.00 0.00 0.00 65 1005.9
20260505182136 28 168 3.2 17.7 0.00 0.00 0.00 65 1005.7
20260505181632 28 231 1.6 6.4 0.00 0.00 0.00 65 1005.6
20260505181130 28 180 11.3 19.3 0.00 0.00 0.00 65 1005.8
20260505180625 27 209 11.3 16.1 0.00 0.00 0.00 65 1005.9
20260505180123 28 185 9.7 11.3 0.00 0.00 0.00 65 1006.0
20260505175619 27 197 11.3 16.1 0.00 0.00 0.00 65 1005.8
20260505175115 27 256 4.8 14.5 0.00 0.00 0.00 68 1005.9
20260505174612 27 249 4.8 17.7 0.00 0.00 0.00 67 1005.8
20260505174108 27 135 6.4 12.9 0.00 0.00 0.00 69 1006.0
20260505173605 26 185 16.1 20.9 0.00 0.00 0.00 68 1005.9
20260505173102 26 207 12.9 19.3 0.00 0.00 0.00 69 1005.8
20260505172559 26 188 4.8 17.7 0.00 0.00 0.00 69 1005.8
20260505172056 26 213 9.7 17.7 0.00 0.00 0.00 68 1005.7
20260505171550 26 229 8.0 17.7 0.00 0.00 0.00 70 1005.8
20260505171048 26 205 9.7 14.5 0.00 0.00 0.00 71 1005.7
20260505170544 25 210 14.5 17.7 0.00 0.00 0.00 71 1005.7
20260505170041 25 205 9.7 9.7 0.00 0.00 0.00 73 1005.8
20260505165536 25 193 11.3 17.7 0.00 0.00 0.00 72 1005.8
20260505165032 25 207 6.4 19.3 0.00 0.00 0.00 72 1005.7
20260505164528 25 141 4.8 12.9 0.00 0.00 0.00 72 1005.8
20260505164026 25 201 8.0 17.7 0.00 0.00 0.00 72 1005.7
20260505163525 25 151 3.2 16.1 0.00 0.00 0.00 72 1005.7
20260505163021 25 198 12.9 22.5 0.00 0.00 0.00 73 1005.7
20260505162514 25 146 6.4 12.9 0.00 0.00 0.00 74 1005.8
20260505162011 24 147 3.2 16.1 0.00 0.00 0.00 74 1005.7
20260505161508 24 215 8.0 19.3 0.00 0.00 0.00 74 1005.7
20260505161005 24 206 9.7 16.1 0.00 0.00 0.00 74 1005.7
20260505160503 25 202 14.5 22.5 0.00 0.00 0.00 73 1005.8
20260505152939 25 180 12.9 17.7 0.00 0.00 0.00 73 1005.5
20260505152438 25 276 4.8 12.9 0.00 0.00 0.00 76 1005.1
20260505151937 24 145 8.0 22.5 0.00 0.00 0.00 75 1005.2
20260505151433 24 207 9.7 17.7 0.00 0.00 0.00 76 1005.2
20260505150931 23 193 4.8 17.7 0.00 0.00 0.00 77 1005.5
20260505150427 23 192 3.2 22.5 0.00 0.00 0.00 78 1005.4
20260505140357 22 183 8.0 17.7 0.00 0.00 0.00 81 1005.3
20260505124811 21 212 14.5 25.7 0.00 0.00 0.00 85 1004.7
20260505124308 21 160 8.0 17.7 0.00 0.00 0.00 85 1004.6
20260505123804 21 210 8.0 17.7 0.00 0.00 0.00 84 1004.8
20260505123301 21 190 11.3 16.1 0.00 0.00 0.00 85 1004.7
20260505122757 21 152 9.7 22.5 0.00 0.00 0.00 85 1004.4
20260505122255 21 177 9.7 16.1 0.00 0.00 0.00 85 1004.5
20260505121751 21 190 11.3 22.5 0.00 0.00 0.00 85 1004.3
20260505121247 21 205 17.7 19.3 0.00 0.00 0.00 85 1004.4
20260505120744 21 206 6.4 27.4 0.00 0.00 0.00 85 1004.3
20260505120240 21 212 6.4 14.5 0.00 0.00 0.00 85 1004.3
20260505115739 21 207 9.7 16.1 0.00 0.00 0.00 85 1004.4
20260505115237 21 187 11.3 20.9 0.00 0.00 0.00 85 1004.2
20260505114734 21 214 8.0 17.7 0.00 0.00 0.00 85 1004.2
20260505114230 21 216 8.0 22.5 0.00 0.00 0.00 85 1004.2
20260505113726 21 174 8.0 14.5 0.00 0.00 0.00 85 1004.2
20260505113223 21 222 4.8 12.9 0.00 0.00 0.00 85 1004.2
20260505112719 21 216 11.3 20.9 0.00 0.00 0.00 85 1004.0
20260505112218 21 131 4.8 14.5 0.00 0.00 0.00 85 1004.3
20260505111717 21 218 11.3 17.7 0.00 0.00 0.00 85 1004.4
20260505111213 21 209 4.8 17.7 0.00 0.00 0.00 84 1004.2
20260505110709 21 194 8.0 20.9 0.00 0.00 0.00 84 1004.1
20260505110207 21 183 11.3 16.1 0.00 0.00 0.00 84 1004.1
20260505102142 21 165 14.5 19.3 0.00 0.00 0.00 83 1004.3
20260505101641 21 186 9.7 14.5 0.00 0.00 0.00 83 1004.3
20260505101137 21 206 6.4 17.7 0.00 0.00 0.00 83 1004.2
20260505100633 21 149 3.2 27.4 0.00 0.00 0.00 83 1004.4
20260505100130 21 213 6.4 17.7 0.00 0.00 0.00 83 1004.1
20260505095626 21 232 6.4 22.5 0.00 0.00 0.00 83 1004.5
20260505095123 21 129 3.2 17.7 0.00 0.00 0.00 83 1004.2
20260505094620 21 207 24.1 25.7 0.00 0.00 0.00 83 1004.4
20260505094116 21 187 8.0 22.5 0.00 0.00 0.00 83 1004.1
20260505093612 21 163 11.3 17.7 0.00 0.00 0.00 83 1004.0
20260505093110 21 170 6.4 17.7 0.00 0.00 0.00 83 1004.3
20260505092607 21 125 4.8 19.3 0.00 0.00 0.00 83 1004.4
20260505092106 21 195 9.7 17.7 0.00 0.00 0.00 83 1004.3
20260505091602 21 187 6.4 20.9 0.00 0.00 0.00 82 1004.6
20260505091100 21 194 11.3 19.3 0.00 0.00 0.00 82 1004.6
20260505090558 21 124 4.8 20.9 0.00 0.00 0.00 82 1004.6
20260505090055 21 183 11.3 25.7 0.00 0.00 0.00 82 1004.6
20260505085553 21 202 8.0 17.7 0.00 0.00 0.00 82 1004.6
20260505085051 21 210 6.4 17.7 0.00 0.00 0.00 81 1004.6
20260505084549 21 174 19.3 24.1 0.00 0.00 0.00 81 1004.7
20260505084047 21 117 1.6 14.5 0.00 0.00 0.00 81 1004.6
20260505083543 21 238 8.0 17.7 0.00 0.00 0.00 81 1004.7
20260505083040 21 224 4.8 16.1 0.00 0.00 0.00 80 1004.5
20260505082536 21 167 8.0 16.1 0.00 0.00 0.00 80 1004.7
20260505082033 21 201 12.9 17.7 0.00 0.00 0.00 80 1004.8
20260505081529 21 305 3.2 12.9 0.00 0.00 0.00 79 1004.8
20260505081026 21 161 6.4 20.9 0.00 0.00 0.00 79 1004.8
20260505080522 21 161 16.1 17.7 0.00 0.00 0.00 79 1004.6
20260505080019 21 201 4.8 12.9 0.00 0.00 0.00 78 1004.7
20260505075515 22 298 3.2 17.7 0.00 0.00 0.00 78 1004.7
20260505075012 22 202 8.0 19.3 0.00 0.00 0.00 78 1004.8
20260505074510 22 204 9.7 17.7 0.00 0.00 0.00 77 1005.1
20260505074007 22 190 14.5 22.5 0.00 0.00 0.00 77 1005.1
20260505073504 22 128 4.8 17.7 0.00 0.00 0.00 76 1005.1
20260505073002 22 193 11.3 24.1 0.00 0.00 0.00 76 1005.2
20260505072457 22 153 6.4 17.7 0.00 0.00 0.00 75 1005.4
20260505071953 22 200 12.9 24.1 0.00 0.00 0.00 75 1005.5
20260505071449 22 190 14.5 24.1 0.00 0.00 0.00 75 1005.5
20260505070948 22 220 6.4 17.7 0.00 0.00 0.00 74 1005.3
20260505070444 22 207 9.7 17.7 0.00 0.00 0.00 74 1005.7
20260505065940 22 155 6.4 20.9 0.00 0.00 0.00 73 1005.6
20260505065437 22 207 8.0 17.7 0.00 0.00 0.00 73 1005.7
20260505064933 22 236 11.3 16.1 0.00 0.00 0.00 72 1005.6
20260505064430 22 153 4.8 20.9 0.00 0.00 0.00 72 1005.8
20260505063929 22 200 16.1 20.9 0.00 0.00 0.00 72 1005.9
20260505063425 22 185 8.0 25.7 0.00 0.00 0.00 71 1006.0
20260505062921 22 207 8.0 14.5 0.00 0.00 0.00 71 1005.8
20260505062419 23 180 14.5 29.0 0.00 0.00 0.00 71 1005.8
20260505061915 23 193 17.7 25.7 0.00 0.00 0.00 71 1006.1
20260505061414 23 206 9.7 16.1 0.00 0.00 0.00 71 1005.8
20260505060911 23 92 3.2 19.3 0.00 0.00 0.00 71 1005.9
20260505060408 22 192 9.7 12.9 0.00 0.00 0.00 71 1006.0